TimeMDT,TemperatureF,Dew PointF,Humidity,Sea Level PressureIn,VisibilityMPH,Wind Direction,Wind SpeedMPH,Gust SpeedMPH,PrecipitationIn,Events,Conditions,WindDirDegrees,DateUTC
12:53 AM,62.1,50.0,65,29.68,10.0,SSE,12.7,-,N/A,,Clear,150,2013-06-24 06:53:00
1:53 AM,59.0,52.0,78,29.67,10.0,SSE,12.7,-,N/A,,Clear,160,2013-06-24 07:53:00
2:53 AM,59.0,53.1,81,29.65,10.0,SSE,8.1,-,N/A,,Clear,150,2013-06-24 08:53:00
3:53 AM,59.0,53.1,81,29.64,10.0,SSE,8.1,-,N/A,,Clear,160,2013-06-24 09:53:00
4:53 AM,59.0,53.1,81,29.65,10.0,South,12.7,-,N/A,,Clear,170,2013-06-24 10:53:00
5:53 AM,57.0,53.1,87,29.66,10.0,South,12.7,-,N/A,,Clear,180,2013-06-24 11:53:00
6:53 AM,59.0,53.1,81,29.63,10.0,SSE,6.9,-,N/A,,Clear,160,2013-06-24 12:53:00
7:53 AM,64.0,55.0,73,29.64,10.0,South,10.4,-,N/A,,Clear,170,2013-06-24 13:53:00
8:53 AM,68.0,55.9,65,29.63,10.0,SSE,6.9,-,N/A,,Clear,160,2013-06-24 14:53:00
9:53 AM,72.0,55.0,55,29.65,10.0,Calm,Calm,-,N/A,,Clear,0,2013-06-24 15:53:00
10:53 AM,75.9,55.9,50,29.61,10.0,Calm,Calm,-,N/A,,Clear,0,2013-06-24 16:53:00
11:53 AM,78.1,57.0,48,29.61,10.0,SE,4.6,-,N/A,,Clear,140,2013-06-24 17:53:00
12:53 PM,82.0,55.9,41,29.58,10.0,SE,5.8,-,N/A,,Clear,130,2013-06-24 18:53:00
1:53 PM,84.0,50.0,31,29.56,10.0,East,4.6,-,N/A,,Clear,100,2013-06-24 19:53:00
2:53 PM,84.9,55.9,37,29.53,10.0,East,12.7,-,N/A,,Clear,80,2013-06-24 20:53:00
3:11 PM,80.6,51.8,37,29.69,10.0,ENE,11.5,-,N/A,Thunderstorm,Clear,70,2013-06-24 21:11:00
3:53 PM,75.9,54.0,46,29.57,10.0,North,17.3,20.7,N/A,Thunderstorm,Thunderstorm,350,2013-06-24 21:53:00
4:14 PM,73.4,42.8,33,29.70,10.0,NNW,12.7,23.0,N/A,,Scattered Clouds,330,2013-06-24 22:14:00
4:25 PM,73.4,42.8,33,29.71,10.0,NNW,18.4,23.0,N/A,Thunderstorm,Mostly Cloudy,330,2013-06-24 22:25:00
4:53 PM,64.9,53.1,65,29.63,4.0,SE,5.8,-,0.03,Rain-Thunderstorm,Thunderstorms and Rain,140,2013-06-24 22:53:00
5:36 PM,68.0,53.6,60,29.71,10.0,NE,8.1,-,0.03,,Clear,50,2013-06-24 23:36:00
5:53 PM,73.9,53.1,48,29.58,10.0,ENE,9.2,-,0.03,,Clear,60,2013-06-24 23:53:00
6:53 PM,72.0,48.9,44,29.55,10.0,East,15.0,20.7,N/A,,Clear,80,2013-06-25 00:53:00
7:53 PM,71.1,48.0,44,29.56,10.0,ESE,13.8,-,N/A,,Clear,120,2013-06-25 01:53:00
8:53 PM,66.9,48.0,51,29.58,10.0,North,4.6,-,N/A,,Clear,10,2013-06-25 02:53:00
9:53 PM,66.9,48.0,51,29.59,10.0,SSE,15.0,19.6,N/A,,Clear,150,2013-06-25 03:53:00
10:53 PM,66.9,48.9,52,29.56,10.0,SSE,17.3,-,N/A,,Clear,160,2013-06-25 04:53:00
11:53 PM,66.0,46.0,48,29.55,10.0,SSE,12.7,-,N/A,,Clear,150,2013-06-25 05:53:00